Meath Environmental Platform

Observations for Trim Market St

Time AQI Temp °C Hum % Pres Pa CO μg/m³ H₂S μg/m³ NO μg/m³ NO₂ μg/m³ O₃ μg/m³ SO₂ μg/m³ PM1 μg/m³ PM2.5 μg/m³ PM10 μg/m³
Thursday 27 August 2026
07:31 2 18.2 83 2,147,483,647 0.26 0 2.16 3.18 53.27 0 18.53 21.58 33.28
07:30 2 18.2 83 2,147,483,647 0.26 0 2.16 4.53 53.19 0 18.53 20.64 31.63
07:28 2 18.2 83 2,147,483,647 0.26 0 2.13 2.48 50.91 0 17.81 20.64 31.09
07:27 2 18.2 83 2,147,483,647 0.26 0 2.11 2.24 50.81 0 17.81 20.18 32.18
07:26 2 18.2 83 2,147,483,647 0.25 0 2.11 1.45 49.37 0 18.53 20.64 31.09
07:24 2 18.2 83 2,147,483,647 0.25 0 2.11 1.79 54.26 0 18.53 22.05 33.83
07:23 2 18.2 83 2,147,483,647 0.25 0 2.12 1.68 51.83 0 18.53 21.57 32.7
07:22 2 18.2 83 2,147,483,647 0.27 0 2.14 1.79 55.21 0 17.81 20.17 31.06
07:20 2 18.2 84 2,147,483,647 0.3 0 2.13 4.25 51.17 0 17.81 19.69 31.04
07:19 2 18.2 84 2,147,483,647 0.27 0 2.13 2.38 49.87 0 19.24 21.09 32.13
07:18 2 18.2 84 2,147,483,647 0.29 0 2.12 3.76 49.23 0 17.81 20.62 31.04
07:16 2 18.2 84 2,147,483,647 0.27 0 2.13 1.46 53.13 0 17.81 20.16 31.58
07:11 2 18.1 84 2,147,483,647 0.28 0 2.12 2.32 52.03 0 17.81 19.68 31.56
07:09 2 18.1 84 2,147,483,647 0.27 0 2.12 1.86 51.13 0 18.53 20.61 32.65
07:05 2 18.1 84 2,147,483,647 0.28 0 2.13 1.81 51.97 0 19.24 21.07 32.62
07:00 2 18.1 84 2,147,483,647 0.3 0 2.15 2.3 53.29 0 18.53 20.13 32.05
06:57 2 18.1 84 2,147,483,647 0.3 0 2.18 3.21 55.2 0 16.39 18.73 28.78
06:56 2 18 84 2,147,483,647 0.37 0 2.18 11.62 47.29 0 18.53 20.59 31.5
06:55 2 18 84 2,147,483,647 0.3 0 2.19 1.88 53.14 0 17.81 21.05 32.02
06:54 2 18 84 2,147,483,647 0.3 0 2.17 4.99 54.86 0 17.1 20.12 30.93